Weather in Buturlino

Russia / Nizhny Novgorod Oblast'     55°34′04″N   44°54′17″E
temp.,
°C
wind,
m/s
gust,
m/s
humid.,
%
clouds,
%
prec.,
mm/h
press.,
hPa
HPBL,
m
18 april, sun
sun1800:00+5ene512786 0.0 1022308
03:00+4ene511824 0.0 1023263
06:00+3ene410805 0.0 1022243
09:00+9ene68575 0.0 1022566
12:00+12ene67394 0.0 10221180
15:00+13ene673720 0.0 10221756
18:00+12ne594966 0.0 1021374
21:00+7ene8137798 0.0 1024633
19 april, mon
mon1900:00+5ene7138093 0.0 1024491
03:00+3ene6127699 0.0 1025406
06:00+2ene61271100 0.0 1026466
09:00+4e81157100 0.0 1026748
12:00+6e91144100 0.0 10261209
15:00+7e9113980 0.0 10261527
18:00+6e711505 0.0 10261396
21:00+4e7145194 0.0 1027630
20 april, tue
tue2000:00+3e71449100 0.0 1027571
03:00+1e7145816 0.0 1027425
06:00+1e7156394 0.0 1027482
09:00+6ese9135076 0.0 1027999
12:00+9ese9124062 0.0 10261355
15:00+10ese9124026 0.0 10251486
18:00+8ese91345100 0.0 10231070
21:00+6ese81643100 0.0 1022813
21 april, wed
wed2100:00+6ese91745100 0.0 1020879
03:00+4ese112065100 0.7 1017812
06:00+2se112288100 4.9 1016885
09:00+3se101989100 6.9 1015844
12:00+4se101888100 0.1 1014945
15:00+5sse101887100 0.1 1014951
18:00+6sse91690100 0.0 1015820
21:00+6sse71293100 0.1 1017481
22 april, thu
thu2200:00+5sse61194100 0.0 1018428
03:00+5sse51195100 0.3 1019368
06:00+5s61196100 1.1 1019620
09:00+9s798036 1.2 1020840
12:00+12sw71054100 0.1 10201758
15:00+12sw6106174 0.3 10211367
18:00+11ssw49685 0.7 1022343
21:00+8s3979100 0.8 1023180